Regional Weather Roundup
Issued by NWS

Home | Current Version | Previous Version | Text Only | Print | Product List | Glossary On
Versions: 1 2 3 4 5 6 7 8 9 10 11 12 13 14 15 16 17 18 19 20 21 22 23 24 25 26 27 28 29 30 31 32 33 34 35 36 37 38 39 40 41 42 43 44 45 46 47 48 49 50
000
ASUS44 KFWD 112015
RWRTX
NORTH TEXAS HOURLY WEATHER ROUNDUP
NATIONAL WEATHER SERVICE FORT WORTH TX
200 PM CST MON DEC 11 2017

NOTE: "FAIR" INDICATES FEW OR NO CLOUDS BELOW 12,000 FEET WITH NO
SIGNIFICANT WEATHER AND/OR OBSTRUCTIONS TO VISIBILITY.

TXZ118-119-112100-
DALLAS/FORT WORTH METROPLEX

CITY           SKY/WX    TMP DP  RH WIND       PRES   REMARKS
DFW AIRPORT    MOSUNNY   79  14   8 W14       30.10F
DALLAS LOVE    MOSUNNY   77  18  11 W12       30.11F
FTW MEACHAM    SUNNY     78  18  10 W14G23    30.12F
DAL-EXECUTIVE  SUNNY     75  19  12 W10G17    30.12F
FTW-ALLIANCE   MOSUNNY   75  14  10 W14G24    30.12F
FTW-NAS-JRB    CLOUDY    77  15   9 SW14      30.14F
FTW-SPINKS     SUNNY     77  19  11 W9        30.16F
ARLINGTON      SUNNY     74  16  11 SW10      30.14F
GRAND PRAIRIE  SUNNY     73  18  12 SW12      30.15F
ADDISON        PTSUNNY   75  16  10 W12G23    30.12F
MESQUITE       SUNNY     75  18  11 SW10      30.13F
LANCASTER      SUNNY     77  16  10 W13G21    30.14F
$$

TXZ091>094-102>105-117-120-121-131>134-112100-
NORTH CENTRAL TEXAS

CITY           SKY/WX    TMP DP  RH WIND       PRES   REMARKS
SHRMAN/DENISON SUNNY     74  18  12 W13G21    30.10F
GAINESVILLE    SUNNY     74  15  10 W15       30.12F
BOWIE          SUNNY     75  14   9 W13       30.12F
BRIDGEPORT     SUNNY     75  24  14 W12       30.15F
DECATUR        SUNNY     74  18  12 W9        30.12F
DENTON         SUNNY     75  21  13 W14       30.11F
MCKINNEY       SUNNY     74  21  13 W13       30.11F
BONHAM         SUNNY     72  22  15 W13       30.08F
GREENVILLE     SUNNY    N/A N/A N/A SW12G17   30.11F
ROCKWALL       SUNNY     73  26  17 W12       30.12F
TERRELL        SUNNY     76  16  10 W15       30.12F
WAXAHACHIE     SUNNY     76  27  16 W13       30.15F
CLEBURNE       SUNNY     77  12   8 W17       30.16F
GRANBURY       SUNNY     79  18  10 W10       30.15F
$$

TXZ083>090-098>101-113>116-127>130-139>142-154-155-112100-
WESTERN NORTH TEXAS

CITY           SKY/WX    TMP DP  RH WIND       PRES   REMARKS
WICHITA FALLS  MOSUNNY   71  19  14 W12       30.13F
WF-KICKAPOO    SUNNY     71  19  14 NW9       30.16F
VERNON         SUNNY     72  -6   4 W6        30.14F
ABILENE        SUNNY     73  11   9 W14       30.18F
ABILENE-DYESS  SUNNY     74  20  13 W8        30.18F
GRAHAM           N/A     73  22  15 SW12      30.14F
BRECKENRIDGE   SUNNY     76  17  10 W14       30.16F
CISCO          SUNNY     75   5   6 W15G21    30.19F
EASTLAND       SUNNY     75   7   7 W10G17    30.17F
RANGER         SUNNY     75  19  11 W12G18    30.17F
MINERAL WELLS  SUNNY     74  16  11 W12       30.14F
STEPHENVILLE   SUNNY     77   7   7 SW14G21   30.19F
COMANCHE       SUNNY     74  26  16 SW10      30.18F
COLEMAN        SUNNY     74  16  11 SW14      30.20F
$$

TXZ143>147-156>162-174-175-112100-
CENTRAL TEXAS

CITY           SKY/WX    TMP DP  RH WIND       PRES   REMARKS
WACO           SUNNY     77  25  14 SW13      30.16F
WACO-TSTC      SUNNY     77  19  11 SW12G17   30.17F
WACO-MCGREGOR  SUNNY     75  31  19 SW8       30.17F
HILLSBORO      SUNNY     77  24  13 W12       30.15F
CORSICANA      SUNNY     77  18  11 SW15      30.16F
MEXIA          SUNNY     73  24  16 SW9G17    30.17F
HEARNE         CLOUDY    66  35  31 CALM      30.21F
CAMERON        CLOUDY    70  35  28 SW6       30.19F
TEMPLE         CLOUDY    73  28  18 W7        30.19F
KILLEEN        SUNNY     71  24  17 SW10      30.18F
KILLEEN-SKYLRK CLOUDY    73  28  18 SW7       30.19F
FORT HOOD      CLOUDY    72  24  16 SW6       30.16F
GATESVILLE     SUNNY     75  19  12 SW9       30.19F
HAMILTON       SUNNY     77  21  12 SW12      30.19F
LAMPASAS       CLOUDY    71  26  18 W8        30.19F
$$

TXZ095>097-106>112-122>126-135>138-148>153-164>167-112100-
EAST TEXAS

CITY           SKY/WX    TMP DP  RH WIND       PRES   REMARKS
PARIS          SUNNY     76  21  12 W17       30.06F
SULPHUR SPRNGS SUNNY     76  14   9 W17G23    30.11F
MOUNT PLEASANT SUNNY     74  27  17 SW10      30.11F
GILMER           N/A     74  23  15 SW8       30.11F
MINEOLA        SUNNY     75  21  13 SW10      30.11F
TYLER          SUNNY     75  17  11 SW14      30.12F
LONGVIEW       SUNNY     76  26  15 W10       30.11F
MARSHALL       SUNNY     73  15  11 W8        30.12F
ATHENS         SUNNY     72  23  16 SW6       30.13F
PALESTINE      SUNNY     75  22  14 SW7       30.17F
JACKSONVILLE   SUNNY     74  26  17 W9        30.16F
HENDERSON      SUNNY     75  24  14 W13       30.14F
CENTER         CLEAR     74  23  14 W3        30.14F
NACOGDOCHES    SUNNY     73  30  20 W6        30.16F
LUFKIN         CLOUDY    71  39  31 SW5       30.16F
$$

SUPPLEMENTAL OBSERVATIONS (NWS FORT WORTH AREA)

CITY           SKY/WX    TMP DP  RH WIND       PRES   REMARKS
CADDO GRASSLND   N/A     73  21  14 W7          N/A
PAT MAYSE LAKE   N/A     68  23  18 SW12        N/A
GREENVILLE       N/A     75  19  12 SW14        N/A
CEDAR HILL       N/A     75  19  12 W7G20       N/A
POSSUM KINGDOM   N/A     75  18  11 W9          N/A
GRANBURY         N/A     79  16   9 W12         N/A
COMANCHE         N/A     75  18  11 W9          N/A
MCGREGOR         N/A     75  25  15 SW7         N/A
TEMPLE           N/A     73  30  20 W10         N/A
LAKE LIMESTONE   N/A     73  30  20 W8          N/A
$$

SUPPLEMENTAL OBSERVATIONS (NWS NORMAN AREA)

CITY           SKY/WX    TMP DP  RH WIND       PRES   REMARKS
GOODLETT         N/A     72  13  10 NW5       30.15F
ODELL            N/A     72  15  11 W6        30.15F
CROWELL          N/A     73  16  11 NW6       30.16F
KNOX CITY        N/A     75  12   9 SW10      30.16F
SEYMOUR          N/A     74  15  10 W10       30.15F
MILLERS CREEK    N/A     73  23  15 SW9         N/A
$$

SUPPLEMENTAL OBSERVATIONS (NWS SAN ANGELO AREA)

CITY           SKY/WX    TMP DP  RH WIND       PRES   REMARKS
WEINERT          N/A     74  15  10 SW12      30.16F
HASKELL          N/A     73  13  10 W12       30.17F
THROCKMORTON     N/A     70  30  23 W10       30.17F
STAMFORD         N/A     75  15  10 SW15      30.17F
CLYDE            N/A     74  15  10 W9        30.19F
HAMBY            N/A     73  16  11 W13         N/A
IVIE RESERVOIR   N/A     73  23  15 W12         N/A
COLORADO BEND    N/A     73  23  15 SW9         N/A
$$

SUPPLEMENTAL OBSERVATIONS (NWS SHREVEPORT AREA)

CITY           SKY/WX    TMP DP  RH WIND       PRES   REMARKS
CLARKSVILLE      N/A     77  25  14 W6          N/A
TEXARKANA        N/A     75  25  15 SW7         N/A
LINDEN           N/A     75  19  12 W7          N/A
CADDO LAKE       N/A     79  23  12 W6          N/A
GILMER           N/A     75  25  15 W8          N/A
HENDERSON        N/A     77  23  13 W12         N/A
LUFKIN           N/A     75  36  23 MISG        N/A
N SABINE NF      N/A     73  32  21 MISG        N/A
S SABINE NF      N/A     75  36  23 SW2         N/A
$$

SUPPLEMENTAL OBSERVATIONS ARE A COLLECTION OF AUTOMATED INSTRUMENTS
THAT ARE MAINTAINED BY A VARIETY OF FEDERAL AND STATE AGENCIES.
CERTAIN ELEMENTS...SUCH AS HUMIDITY VALUES AND SUSTAINED WIND
SPEEDS...MAY BE APPROXIMATED.





USA.gov is the U.S. government's official web portal to all federal, state and local government web resources and services.